Форум керамистов

Художественная керамика - форум сайта "КерамикАрт.Ру"

Вы не зашли.

  • Список 
  • » Услуги для керамистов: аренда оборудования, обжиг и др.

Услуги для керамистов: аренда оборудования, обжиг и др.

Тема Ответов Просмотров Последнее сообщение
0 97 2017-03-06 09:20:32 оставил Diana90
Xerox Mobile Express Driver Windows 7 Download оставил zujchjfevt94
1 179 2017-03-01 06:48:25 оставил 20151112yuanyuan
0 89 2017-03-01 05:28:37 оставил Ceapptr
AN AUTHENTIC REISSUE OF A CLASSIC SNEAKER. оставил Kenny Smith
0 109 2017-02-23 05:40:56 оставил Kenny Smith
0 107 2017-02-22 06:21:23 оставил keramika
2 512 2017-01-18 17:35:22 оставил Gaia1956
Pandora Bound In Love Bracelet Sale оставил seeNathan
0 143 2017-01-06 10:42:54 оставил seeNathan
Pandora Philadelphia Eagles Charms Cheap оставил seeNathan
0 152 2017-01-06 10:41:16 оставил seeNathan
The contempo beachcomber of abandon оставил mmodiy1
0 121 2016-12-23 10:54:15 оставил mmodiy1
0 133 2016-12-22 05:48:32 оставил Waltero
Admiral Obama said a lot accepting оставил mmodiy1
0 141 2016-12-21 09:42:02 оставил mmodiy1
0 157 2016-12-16 10:22:58 оставил zosyidr5
0 170 2016-12-10 11:47:14 оставил mmodiy1
0 195 2016-11-27 09:17:28 оставил baiji7
0 293 2016-09-27 06:10:29 оставил CraigWatts
0 256 2016-09-14 11:09:02 оставил Walder
Do not miss these jackets! оставил Cherry1
0 300 2016-08-17 05:43:19 оставил Cherry1
Nike Air Max Thea soldes france оставил siren7777
1 400 2016-08-01 12:34:37 оставил vuplusbox
0 286 2016-07-25 08:42:34 оставил Waltero
today allows you to have a good reason to shop оставил SeerdenFenna
0 347 2016-07-07 10:47:19 оставил SeerdenFenna
0 380 2016-06-29 06:22:11 оставил Joey
Quicktime Windows 64 Bit Free Download оставил xxckzapajytk
1 431 2016-06-21 06:13:15 оставил korence
Ntrights.Exe Download Windows Xp оставил zujchjfevt94
1 405 2016-06-20 10:30:29 оставил korence
0 324 2016-06-17 12:47:52 оставил zosyidr5
0 388 2016-06-15 06:13:23 оставил Talbott
0 308 2016-06-14 11:28:36 оставил fox jorge_k
0 276 2016-06-14 11:27:33 оставил fox jorge_k
Newbie Skydiving оставил fox jorge_k
0 301 2016-06-14 11:26:05 оставил fox jorge_k
Don't Let a Hurricane Blow You Away! оставил fox jorge_k
0 307 2016-06-14 11:24:48 оставил fox jorge_k
0 372 2016-06-06 11:00:20 оставил Schumake
  • Список 
  • » Услуги для керамистов: аренда оборудования, обжиг и др.

Board footer

Powered by PunBB
© Copyright 2002–2005 Rickard Andersson

Реклама:

Rambler's Top100